Погода в Светлом

Россия / Республика Марий Эл     56°33′05″N   47°50′16″E
темп.,
°C
ветер,
м/с
пор.,
м/с
влажн.,
%
обл.,
%
осадки,
мм/ч
давл.,
гПа
погр.,
м
22 мая, вс
вс2200:000ссз279636 0.0 1006187
03:00−2сз279820 0.0 1006171
06:00+1ссз358668 0.0 1004499
09:00+3ссз3466100 0.1 10031195
12:00+4ссз3460100 0.1 10031397
15:00+5сз3454100 0.2 10021436
18:00+5ссз3456100 0.1 10011255
21:00+1сз248050 0.2 100187
23 мая, пн
пн2300:00−2сз259510 0.0 100099
03:00−2зсз249711 0.0 100091
06:00+1з358014 0.0 999373
09:00+5з4559100 0.1 9981468
12:00+5з4661100 0.1 9981342
15:00+6зюз4658100 0.4 9991530
18:00+5зюз4673100 0.3 9991029
21:00+2юз3893100 0.6 999391
24 мая, вт
вт2400:00+1юз4998100 0.3 999553
03:00+1зюз3798100 2.6 1000301
06:00+1ююз2598100 0.1 1001369
09:00+3ю3495100 0.4 1002484
12:00+3юз2499100 0.4 1003336
15:00+6зюз347497 0.8 10041242
18:00+6з2481100 0.5 1006264
21:00+1зсз22925 0.6 100720
25 мая, ср
ср2500:00−1з22955 0.0 100821
03:00−2з229813 0.0 100936
06:00+2з249269 0.0 1009284
09:00+5з358098 0.0 1010612
12:00+7зюз346385 0.1 10101091
15:00+9з356792 0.5 10101334
18:00+7з368886 1.4 1010568
21:00+3зсз3697100 2.7 1011634
26 мая, чт
чт2600:00+3з3995100 0.0 1010399
03:00+3з3895100 0.2 1010595
06:00+4з379399 0.0 1010478
09:00+6з378396 0.1 1009896
12:00+8зюз4682100 0.7 10091029
15:00+8зюз4685100 1.9 10071204
18:00+6ююз2598100 2.3 1006246
21:00+6юз2399100 4.0 1004108